EHI
0 0 0 0 0 0 0 0 0 0 1 2 3 4 5 4 6 9 16 23 26 25 26 28 30 35 42 49 51 52 53 50 48 49 50 46 40 38 36 34 35 35 35 35
0 0 0 0 0 0 0 0 0 0 0 1 2 4 5 6 8 11 15 23 27 28 27 26 27 31 38 45 46 47 48 47 46 47 47 41 36 33 33 33 34 33 32 32
0 0 0 0 0 0 0 0 0 0 0 1 1 2 5 8 10 12 14 20 26 28 27 24 22 26 33 39 42 43 44 42 40 40 38 35 33 33 34 35 34 31 30 30
0 0 0 0 0 0 0 0 0 0 0 0 0 1 6 11 12 12 13 16 21 25 26 24 21 23 29 34 39 42 43 39 35 33 32 31 32 33 34 35 34 32 31 31
0 0 0 0 0 0 0 0 0 0 0 0 0 1 6 11 12 12 11 12 16 21 23 21 20 23 28 32 36 39 39 35 31 29 29 28 28 28 28 30 32 32 31 30
0 0 0 0 0 0 0 0 0 0 0 0 0 1 4 8 10 10 9 10 13 16 17 17 18 23 27 30 32 33 32 28 25 25 26 25 24 23 22 25 28 29 27 26
0 0 0 0 0 0 0 0 0 0 0 0 0 1 3 5 6 7 7 9 12 13 12 13 16 20 23 25 27 28 27 23 20 21 23 23 21 19 19 20 21 21 19 19
0 0 0 0 0 0 0 0 0 0 0 0 0 1 2 3 4 4 5 8 11 12 12 11 12 15 18 21 22 23 22 20 19 18 19 19 16 14 14 14 14 13 12 11
0 0 0 0 0 0 0 0 0 0 0 0 0 1 3 5 5 4 5 7 9 11 12 11 10 12 16 18 18 17 17 17 16 14 14 14 13 12 11 10 10 10 9 9
0 0 0 0 0 0 0 0 0 0 0 0 0 1 4 5 4 3 4 6 7 9 11 11 10 12 14 15 14 12 12 13 12 11 11 10 9 9 9 9 9 8 8 9
0 0 0 0 0 0 0 0 0 0 0 0 0 0 1 2 1 1 2 5 8 9 10 11 10 10 12 12 11 9 8 7 7 7 8 8 6 5 7 9 8 7 7 7
0 0 0 0 0 0 0 0 0 0 0 0 0 0 0 0 0 0 1 5 8 10 9 8 8 8 8 9 9 7 4 3 4 4 4 5 4 4 6 7 7 6 6 4
0 0 0 0 0 0 0 0 0 0 0 0 0 0 0 0 0 0 2 4 8 9 7 5 4 5 5 6 6 5 3 2 3 3 3 3 3 3 4 5 5 5 5 3
0 0 0 0 0 0 0 0 0 0 0 0 0 0 0 0 0 0 1 3 6 6 5 2 2 3 4 5 4 3 3 3 3 3 2 2 2 2 1 2 2 3 3 2
0 0 0 0 0 0 0 0 0 0 0 0 0 0 0 0 0 0 0 2 4 4 3 1 1 2 4 4 3 3 3 4 3 2 1 1 1 1 0 0 1 1 2 2
0 0 0 0 0 0 0 0 0 0 0 0 0 0 0 0 0 0 0 0 1 2 2 1 2 3 4 4 3 3 3 3 3 1 0 0 0 0 0 0 0 1 2 2
0 0 0 0 0 0 0 0 0 0 0 0 0 0 0 0 0 0 0 0 0 1 2 2 2 4 5 4 3 3 2 2 2 1 0 0 0 0 1 1 0 0 2 3
0 0 0 0 0 0 0 0 0 0 0 0 0 0 0 0 1 1 1 0 0 1 2 2 2 3 3 3 2 1 1 1 1 1 0 0 0 1 2 1 0 0 2 3
0 0 0 0 0 0 0 0 0 0 0 0 0 0 0 0 1 3 2 1 0 1 1 1 1 1 1 1 1 1 1 1 1 0 0 0 0 1 1 1 0 0 1 2
0 0 0 0 0 0 0 0 0 0 0 0 0 0 0 0 1 2 2 1 0 0 0 0 0 0 0 1 1 2 2 2 2 1 1 0 0 0 0 0 0 0 0 1
0 0 0 0 0 0 0 0 0 0 0 0 0 0 0 0 0 1 1 1 0 0 0 0 0 0 1 2 3 3 3 3 3 3 2 1 1 1 0 0 0 0 1 2
0 0 0 0 0 0 0 0 0 0 0 0 0 0 0 0 0 0 0 0 0 0 0 0 0 0 1 2 2 3 3 3 3 3 3 3 2 2 1 0 0 0 1 2
0 0 0 0 0 0 0 0 0 0 0 0 0 0 0 0 0 0 0 0 0 0 0 0 0 0 0 1 1 1 2 3 3 3 2 2 3 3 2 1 0 0 0 1
0 0 0 0 0 0 0 0 0 0 0 0 0 0 0 0 0 0 0 0 0 0 0 0 0 0 0 0 0 0 1 2 2 1 1 1 1 3 3 3 2 0 0 0
0 0 0 0 0 0 0 0 0 0 0 0 0 0 0 0 0 0 0 0 0 0 0 0 0 0 0 0 0 0 0 1 1 0 0 0 1 2 3 3 3 1 0 0
0 0 0 0 0 0 0 0 0 0 0 0 0 0 0 0 0 0 0 0 0 0 0 0 0 0 0 0 0 0 0 0 0 0 0 0 0 1 1 2 2 1 0 0
Wind_Speed
8 7 6 7 8 10 11 12 12 10 8 9 8 6 4 2 1 2 4 5 5 5 5 5 5 5 5 4 3 2 1 1 1 0 1 2 2 1 1 1 1 1 1 2
6 5 6 8 8 9 11 13 12 9 9 9 10 8 3 1 1 3 4 5 5 6 5 4 3 4 3 3 3 2 2 1 1 0 1 2 1 1 1 1 1 1 2 2
7 4 5 8 10 10 10 12 12 13 13 12 12 8 0 4 5 5 5 5 5 5 4 4 3 2 2 2 2 2 2 2 1 1 1 1 1 2 2 2 2 2 2 2
7 5 6 8 8 10 11 13 13 14 14 11 11 8 1 4 4 6 6 6 6 5 5 5 3 3 2 3 2 2 2 2 2 1 1 1 2 2 1 1 1 2 2 2
8 7 7 8 9 9 12 14 15 16 15 14 9 7 1 4 5 6 6 6 6 6 5 5 4 4 3 3 3 2 2 2 2 1 1 2 2 1 1 1 2 2 3 3
11 7 5 8 9 9 12 14 15 13 10 10 8 8 2 3 4 4 5 6 6 6 6 6 6 6 5 4 3 3 2 1 1 1 1 1 2 2 2 2 2 2 1 1
11 6 4 6 10 10 12 12 9 8 6 7 9 6 4 6 5 5 5 5 5 5 6 6 6 5 5 4 4 3 3 1 1 1 1 1 1 2 2 2 2 2 2 1
11 8 7 8 9 11 11 10 8 10 11 11 9 3 3 5 7 7 7 6 6 5 5 5 5 5 5 5 5 5 3 2 1 1 1 1 1 1 2 2 2 2 2 1
10 9 10 11 9 9 11 9 10 10 12 11 6 3 2 5 8 8 7 7 7 6 6 6 5 5 5 5 5 5 4 2 2 1 1 1 2 1 2 2 2 2 2 2
11 13 12 11 10 8 10 10 8 7 8 9 9 5 5 7 8 7 7 8 8 7 5 5 4 4 4 4 3 3 3 3 2 1 1 2 1 1 1 2 2 2 2 2
11 10 12 11 9 11 10 10 9 9 8 9 9 4 4 5 7 8 7 7 8 7 6 5 5 4 4 4 3 3 3 3 2 1 1 2 2 2 1 1 1 2 2 2
9 8 11 12 9 7 7 8 9 8 9 9 9 5 5 7 7 7 8 8 8 8 8 6 6 5 4 4 4 3 3 3 2 1 1 1 1 1 1 2 2 2 2 2
9 7 9 7 4 6 8 8 9 7 7 8 9 6 5 8 7 8 8 8 7 7 7 6 6 5 5 5 5 4 4 4 3 2 2 2 2 2 2 2 2 2 2 2
5 6 8 10 12 13 11 11 10 9 7 9 9 11 8 9 8 8 8 7 6 7 7 7 6 6 5 5 5 5 5 4 4 3 2 2 3 2 2 2 2 2 1 2
5 8 10 13 14 14 12 12 11 10 10 10 11 10 8 8 9 8 7 7 7 8 8 8 6 5 5 5 4 4 5 5 4 3 3 2 2 2 2 2 2 2 2 3
5 8 12 14 13 12 11 12 10 9 9 10 10 8 8 8 8 9 8 8 8 8 8 8 8 7 6 5 5 4 4 4 4 4 3 3 2 2 2 2 2 3 2 2
6 9 12 12 13 12 7 8 7 8 8 9 9 9 10 9 9 9 9 8 8 8 8 8 8 7 5 5 5 5 4 4 4 4 4 3 2 2 2 3 2 3 2 2
7 8 7 10 10 7 3 8 8 7 7 9 9 10 10 10 8 7 6 7 8 9 8 7 6 6 5 5 5 5 4 4 4 4 3 3 2 3 2 2 3 3 2 2
5 6 7 7 8 6 6 9 10 9 6 9 10 11 14 13 9 6 8 10 9 10 8 6 6 5 5 5 5 5 4 4 4 4 3 3 2 3 2 2 2 2 2 2
3 4 6 8 10 7 7 11 11 8 3 10 11 12 13 13 9 7 10 11 10 9 7 6 6 5 5 4 4 5 4 4 4 4 3 2 2 2 2 2 2 2 2 2
6 6 7 9 9 5 7 11 10 6 7 10 11 11 12 10 8 9 10 10 8 8 8 6 6 5 4 4 4 4 4 4 4 4 2 1 1 2 2 1 2 2 2 2
7 7 7 8 8 4 10 10 8 6 7 9 10 10 11 10 10 9 9 9 8 8 8 7 4 4 4 4 4 4 4 4 4 3 2 2 1 2 2 2 2 2 2 2
5 5 5 5 6 6 7 7 7 7 9 10 10 11 11 11 11 11 9 8 8 7 7 5 4 4 4 3 4 4 3 3 3 3 2 2 2 2 2 2 2 2 2 1
6 6 8 8 8 9 9 10 10 9 9 11 11 11 11 11 11 11 8 7 7 7 6 5 5 5 5 4 4 4 3 3 2 2 2 2 2 2 1 1 1 1 1 1
11 10 10 11 11 11 10 11 11 10 10 11 11 11 10 10 10 9 7 7 7 6 5 5 4 4 5 4 4 4 3 1 2 2 2 2 2 2 1 0 1 0 1 1
8 8 9 10 10 11 12 12 12 12 12 11 11 11 10 9 9 9 7 5 5 6 5 5 4 4 5 5 4 3 2 1 1 2 2 2 2 2 1 1 1 1 1 1
Wind_Direction
254 260 292 330 325 322 316 311 303 310 316 309 299 300 299 308 275 59 78 75 65 75 71 59 56 63 57 62 77 81 71 70 43 219 201 216 218 215 235 214 172 175 218 231
269 277 319 317 310 301 302 302 302 309 313 307 295 286 274 183 74 71 72 65 63 61 68 69 63 74 71 70 61 64 37 30 12 204 237 214 216 224 234 256 212 203 228 236
300 326 334 315 311 314 318 315 321 317 312 298 285 280 41 70 76 78 62 69 65 59 54 50 51 67 73 82 71 38 28 15 2 330 266 261 230 232 234 216 213 226 235 235
295 320 313 306 313 327 314 322 318 305 297 292 287 285 152 102 78 70 57 51 56 50 47 43 35 37 63 77 81 67 44 10 346 344 314 284 260 263 267 253 226 226 234 239
298 309 316 315 330 325 311 311 299 288 281 278 280 277 127 105 85 65 55 46 42 38 38 33 28 34 45 65 63 61 53 18 357 336 312 308 314 316 296 261 237 230 224 218
302 305 336 334 323 308 312 307 296 284 277 274 299 299 25 55 69 72 59 56 48 36 32 29 28 33 32 41 40 39 49 32 359 341 322 320 322 329 320 298 271 253 236 215
311 318 346 348 328 328 331 324 318 318 308 304 327 321 42 52 56 69 66 60 53 42 39 25 23 33 28 18 23 17 32 11 319 303 319 347 332 315 304 308 302 306 289 256
322 326 355 347 336 328 327 326 320 313 309 307 312 321 92 51 56 69 62 52 38 34 37 27 19 26 26 21 20 16 26 14 359 355 344 350 327 318 338 332 325 315 307 307
327 320 321 323 323 323 318 323 325 309 298 297 304 347 71 37 44 49 46 36 25 20 27 24 25 27 23 18 25 16 12 13 6 21 14 354 340 344 333 314 315 326 321 308
324 313 308 317 314 312 314 329 327 312 309 305 308 338 359 6 19 26 21 19 17 15 21 24 22 25 26 23 28 19 13 7 356 1 344 349 342 331 321 321 333 329 327 325
331 307 308 316 315 324 331 335 334 326 318 310 308 335 14 20 22 14 13 15 11 5 9 15 9 16 15 17 13 27 11 353 348 41 40 359 342 337 339 313 322 325 329 327
344 315 306 306 309 328 338 339 340 329 321 313 307 313 12 33 34 21 12 15 16 16 11 9 8 4 5 4 8 12 2 355 344 19 45 26 323 319 310 325 329 324 334 328
342 320 312 315 334 345 341 339 333 327 310 303 300 306 19 20 21 16 12 17 11 7 4 3 4 359 358 357 2 1 356 352 345 1 17 16 345 330 332 334 335 328 334 330
300 292 298 305 310 317 319 320 324 322 307 301 303 312 345 5 7 8 4 4 0 355 358 1 4 357 358 360 358 355 356 353 347 359 15 19 349 325 338 342 334 318 321 322
317 299 301 298 299 302 306 312 319 317 310 305 313 326 353 4 355 355 356 355 355 353 356 359 360 0 3 357 351 350 350 345 339 342 344 346 332 328 333 332 336 325 323 327
324 304 304 297 298 298 303 308 315 321 323 320 322 335 6 358 349 346 347 349 345 348 352 355 359 359 356 349 340 337 336 332 327 331 331 328 330 336 334 327 339 324 316 321
306 303 303 299 310 304 304 327 330 334 338 333 332 344 346 346 347 348 349 351 348 347 351 352 351 347 345 339 331 319 314 314 317 320 319 332 343 337 335 334 337 325 318 321
277 297 294 297 307 296 341 4 355 344 353 2 356 351 346 343 341 342 351 356 355 348 343 343 340 337 331 325 323 307 299 298 300 304 309 323 329 320 328 332 335 333 326 324
239 273 292 298 302 295 325 4 352 334 337 18 1 351 343 338 332 346 7 2 349 340 335 330 322 317 321 319 319 310 304 301 293 296 300 304 315 316 324 327 324 321 316 321
239 248 273 290 300 305 345 360 350 322 312 18 356 344 338 336 330 334 346 338 334 332 328 321 318 320 317 313 318 310 310 310 300 298 292 289 309 313 314 310 311 308 297 296
291 278 278 290 288 292 5 354 341 330 342 343 339 338 334 333 325 315 319 320 323 322 316 311 312 315 315 313 315 305 300 302 300 298 295 292 297 283 282 291 302 285 275 286
309 306 302 299 291 314 6 352 359 344 325 323 327 326 322 322 320 316 314 318 319 316 314 315 319 325 314 309 307 301 303 305 304 297 294 295 282 279 288 273 271 275 258 260
300 310 305 302 303 325 338 341 339 331 321 322 323 320 318 316 317 318 317 316 318 317 317 315 318 316 313 313 314 305 303 300 304 306 303 295 282 256 257 260 258 277 255 241
306 318 302 296 299 317 322 330 330 331 324 318 315 312 312 312 314 314 317 315 311 310 311 317 315 312 314 318 317 307 303 302 309 313 301 287 275 267 267 270 268 304 334 335
303 308 301 295 306 311 317 326 325 320 312 308 312 314 314 315 315 318 318 316 315 309 308 310 305 301 307 314 311 308 309 322 322 306 294 289 288 282 274 323 348 326 14 311
286 292 294 298 317 313 314 321 321 318 314 314 314 315 317 317 316 318 316 312 312 313 311 309 303 304 307 310 312 313 309 297 298 296 301 297 289 284 267 205 203 325 238 241